Main page
METAR-TAF:

METAR-TAF

Airports :

Agri-Science Center

Chillicothe, Missouri, United States

latitude: 39-49N, longitude: 093-35W, elevation: 768 ft

Current weather observation

The report was made 13 minutes ago, at 08:51 UTC
Calm wind
Temperature 57°F
Humidity 88%
Pressure 29.84 in. Hg

METAR: KCDJ 220851Z AUTO 00000KT 14/12 A2984 RMK AO1 SLP096 T01440117 53004

Time: 04:04 (09:04 UTC)


TAF: missing

Weather observations and forecasts of more than 4000 airports (METAR and TAF reports).

The available stations are represented by yellow and red dots on the map.

Hover mouse over dot to see the name of the station.

Then click to see weather observations and forecasts.

To change the map : click on the green buttons with a black cross to zoom in, on the green button with a dash to zoom out, or on the green arrows for adjacent maps.


METAR-TAF: